STARLINK-32754, 62527

Orbit data source: Space-Track

STARLINK-32754, 62527 is a payload satellite owned by SpaceX/Seattle (US) in LEO that was launched on Wed, 08 Jan 2025 UTC via an FALCON 9 launch vehicle from the Air Force Eastern Test Range (AFETR). Payload-class satellites include a variety of spacecraft equipped with specific instruments for various scientific and technological missions. These include communications satellites like Starlink; space stations such as the ISS; scientific satellites like the Hubble; Earth observation satellites from companies like Planet Labs, Umbra, and HawkEye 360; GPS; miniature CubeSats for education and research; and military/defense satellites.

Loading next visibility...
Identifier
62527, 2025-004S
Orbit
LEO
Last TLE update
23 hours ago
Origin
Manufacturer
SpaceX/Seattle
Mission
Operational Commercial Communications
Bus & Motor
STARLINK V2M, Unknown motor
Mass
730 kg wet, ~700 kg dry
Launch date (UTC)
2025-01-08 (6 months ago)
Launch vehicle
FALCON 9
Launch site
Air Force Eastern Test Range (AFETR)
Object type
Payload
Rocket body
Debris
Shape & HBR
Box + 2 Pan, 29 m
Radar Cross Section
33.884 m², Large (>1 m²)

Expand to show TLE details & history

TLE from 23 hours ago
0 STARLINK-32754
1 62527U 25004S   25181.13669197  .00010349  00000-0  38470-3 0  9994
2 62527  42.9987 206.1784 0003781 296.9117  63.1348 15.27608406 26883
Epoch: 2025-06-30T03:16Z
TLE epoch observation values (Epoch: 2025-06-30T03:16:50.186Z)
Latitude
-0.00001°
Longitude
-121.48155°
Altitude
481.568 km
Speed
7.627 km/s
True Right ascension
13h 44m 42s
True Declination
0° 00' 00"
Sunlit
Object was in daylight at epoch
Visualization orbit readout
Latitude
-13.71186°
Longitude
-142.08551°
Altitude
483.374 km
Speed
7.626 km/s
Apparent Right ascension
09h 21m 36s
Apparent Declination
-58° 58' 35"
Sunlit
Object is in daylight
Visualization observer readout
Local Sidereal Time
14:21:02
Azimuth
213.782° SW
Elevation
-26.528°
Doppler factor
1
Orbital elements
Apogee altitude
487.504 km
Perigee altitude
482.315 km
Semi-major axis
6,863.046 km
Eccentricity
0.00038
Inclination
42.9987°
RAAN
206.1784°
Arg. of periapsis
296.9117°
True anomaly
Unknown
Mean anomaly
63.1348°
Eccentric anomaly
Unknown
Mean motion
3.8174 °/min
Orbital period
94.31 mins
BSTAR
0.0003847
Loading maneuver chart data...
Loading SW <> Apogee altitude chart data...
Loading historical data...
Loading historical data...
Loading historical data...
Loading historical data...
Loading historical data...
Loading historical data...
Loading historical data...

STARLINK-32754 Visibility forecast

Observer location: undefined°, undefined°

Span
Click to sort rows by Start time (UTC) header in descending order
Start Az.
Max El. time (UTC)
Max El. Az.
Max El.
End time (UTC)
End Az.
6 mins2025-07-01 04:34:51.359Z210.359° SW2025-07-01 04:37:51.359Z152.941° SSE27.225°2025-07-01 04:40:51.359Z89.16° E
5 mins2025-07-01 06:14:51.359Z263.843° W2025-07-01 06:16:51.359Z3.79° NNE43.81°2025-07-01 06:19:51.359Z69.911° E
5 mins2025-07-01 07:53:51.359Z294.557° NW2025-07-01 07:55:51.359Z357.313° N38.244°2025-07-01 07:58:51.359Z77.421° E
5 mins2025-07-01 09:32:51.359Z285.245° WNW2025-07-01 09:34:51.359Z244.64° WSW44.214°2025-07-01 09:37:51.359Z114.747° SE
|